This demonstration page uses our WeatherBlox Daily Observations layout. Learn more.

Hourly Observations for January 22, 2018

Temp ( °F °C ) Dew Point ( °F °C ) Humidity (%) Winds ( mph kmh ) Pressure ( in mb ) Visibility ( mi km ) Precip ( " mm )
12:15 am 00:15 Cloudy with Light Wintry Mix 32 0 32 0 100 100 N 13 20 29.68 1005 3 4.82802 0 0
12:35 am 00:35 Cloudy with Light Wintry Mix 32 0 32 0 100 100 N 13 20 29.68 1005 3 4.82802 0 0
12:55 am 00:55 Cloudy with Light Wintry Mix 32 0 32 0 100 100 N 12 19 29.68 1005 4 6.43736 0 0
1:15 am 01:15 Cloudy with Light Wintry Mix 32 0 32 0 100 100 NNE 12 19 29.65 1004 4 6.43736 0 0
1:35 am 01:35 Cloudy with Light Wintry Mix 32 0 32 0 100 100 N 13 20 29.65 1004 5 8.0467 0 0
1:55 am 01:55 Cloudy with Light Wintry Mix 32 0 32 0 100 100 N 12 19 29.65 1004 5 8.0467 0 0
2:15 am 02:15 Cloudy with Mist and Fog 32 0 32 0 100 100 NNE 13 20 29.65 1004 4 6.43736 0 0
2:35 am 02:35 Cloudy with Light Snow 32 0 32 0 100 100 NNE 14 22 29.68 1005 3 4.82802 0 0
2:55 am 02:55 Cloudy with Light Snow 32 0 32 0 100 100 N 9 15 29.68 1005 3 4.82802 0 0
3:15 am 03:15 Cloudy with Light Wintry Mix 32 0 32 0 100 100 N 10 17 29.68 1005 7 11.26538 0 0
3:35 am 03:35 Cloudy with Light Snow 32 0 32 0 100 100 N 10 17 29.68 1005 7 11.26538 0 0
3:55 am 03:55 Cloudy with Light Snow 32 0 31 -0.3 98 98 N 12 19 29.68 1005 7 11.26538 0 0
4:15 am 04:15 Cloudy 32 0 31 -0.5 96 96 N 9 15 29.68 1005 10 16.0934 0 0
4:35 am 04:35 Cloudy 32 -0.1 31 -0.5 97 97 N 9 15 29.68 1005 10 16.0934 0 0
4:55 am 04:55 Cloudy with Light Wintry Mix 31 -0.3 31 -0.6 98 98 N 9 15 29.71 1006 7 11.26538 0 0
5:15 am 05:15 Cloudy with Light Snow 31 -0.5 31 -0.6 99 99 NNW 8 13 29.71 1006 1.5 2.41401 0 0
5:35 am 05:35 Cloudy with Light Snow 31 -0.7 31 -0.7 100 100 N 10 17 29.71 1006 1.5 2.41401 0 0
5:55 am 05:55 Cloudy with Light Snow 31 -0.7 31 -0.8 99 99 N 9 15 29.71 1006 1.5 2.41401 0.01 0.254
6:15 am 06:15 Cloudy with Light Snow 31 -0.8 31 -0.8 100 100 N 12 19 29.77 1008 1.25 2.011675 0 0
6:35 am 06:35 Cloudy with Snow 30 -1.1 30 -1.1 100 100 NNW 12 19 29.77 1008 1 1.60934 0 0
6:55 am 06:55 Cloudy with Snow 30 -1.2 30 -1.2 100 100 NNW 13 20 29.77 1008 0.75 1.207005 0 0
7:15 am 07:15 Cloudy with Snow 30 -1.2 30 -1.2 100 100 NNW 14 22 29.77 1008 0.75 1.207005 0.01 0.254
7:35 am 07:35 Cloudy with Snow 30 -1.2 30 -1.2 100 100 NNW 14 22 29.77 1008 1 1.60934 0.01 0.254
7:55 am 07:55 Cloudy with Light Snow 30 -1.2 30 -1.3 99 99 NNW 15 24 29.8 1009 1 1.60934 0.01 0.254
8:15 am 08:15 Cloudy 30 -1.3 29 -1.5 99 99 NNW 14 22 29.8 1009 N/A 0 0
8:35 am 08:35 undefined 29 -1.5 29 -1.5 100 100 NNW 14 22 29.8 1009 N/A 0 0
8:55 am 08:55 Cloudy 29 -1.5 29 -1.5 100 100 NNW 14 22 29.83 1010 N/A 0 0
9:15 am 09:15 Cloudy 29 -1.7 29 -1.7 100 100 NNW 10 17 29.83 1010 N/A 0 0
9:35 am 09:35 Cloudy 29 -1.8 28 -2 99 99 NNW 10 17 29.83 1010 N/A 0 0
9:55 am 09:55 Cloudy 29 -1.8 28 -2 99 99 NNW 10 17 29.83 1010 N/A 0 0
10:15 am 10:15 Cloudy 29 -1.7 29 -1.9 99 99 NNW 12 19 29.85 1011 N/A 0 0
10:35 am 10:35 undefined 30 -1.1 28 -2.1 93 93 NNW 9 15 29.85 1011 N/A 0 0
10:55 am 10:55 undefined 30 -1 27 -3 86 86 NNW 10 17 29.85 1011 N/A 0 0
11:15 am 11:15 undefined 30 -0.9 27 -2.8 87 87 NW 9 15 29.85 1011 N/A 0 0
11:35 am 11:35 Cloudy 31 -0.6 27 -2.7 86 86 NNW 10 17 29.88 1012 10 16.0934 0 0
11:55 am 11:55 Cloudy 31 -0.7 26 -3.4 82 82 NW 12 19 29.88 1012 10 16.0934 0 0
12:15 pm 12:15 Cloudy 31 -0.5 26 -3.2 82 82 NW 12 19 29.88 1012 10 16.0934 0 0
12:35 pm 12:35 Cloudy 31 -0.3 27 -2.8 83 83 NNW 12 19 29.88 1012 10 16.0934 0 0
12:55 pm 12:55 Cloudy 32 0 27 -2.8 82 82 NNW 10 17 29.88 1012 10 16.0934 0 0
1:15 pm 13:15 Mostly Cloudy 32 -0.2 27 -2.7 83 83 NNW 12 19 29.88 1012 10 16.0934 0 0
2:35 pm 14:35 Mostly Cloudy 32 0 28 -2.5 83 83 NW 10 17 29.88 1012 10 16.0934 0 0
2:55 pm 14:55 Mostly Cloudy 32 0 28 -2.3 85 85 NW 10 17 29.88 1012 10 16.0934 0 0
3:15 pm 15:15 Mostly Cloudy 32 0 28 -2.5 83 83 NNW 10 17 29.88 1012 10 16.0934 0 0
3:35 pm 15:35 Mostly Cloudy 32 0 27 -3 80 80 NNW 13 20 29.91 1013 10 16.0934 0 0
3:55 pm 15:55 Cloudy 32 0 27 -3 80 80 NNW 10 17 29.91 1013 10 16.0934 0 0
4:15 pm 16:15 Partly Cloudy 32 0 26 -3.2 79 79 NW 9 15 29.94 1014 10 16.0934 0 0
4:35 pm 16:35 Sunny 32 0 26 -3.1 80 80 NNW 10 17 29.94 1014 10 16.0934 0 0
4:55 pm 16:55 Sunny 32 0 26 -3.3 79 79 NNW 9 15 29.94 1014 10 16.0934 0 0
5:15 pm 17:15 Sunny 32 -0.2 26 -3.6 78 78 NW 9 15 29.97 1015 10 16.0934 0 0
5:35 pm 17:35 Sunny 31 -0.7 25 -3.9 79 79 NW 8 13 29.97 1015 10 16.0934 0 0
5:55 pm 17:55 Clear 29 -1.5 25 -4.1 83 83 NW 8 13 30.03 1017 10 16.0934 0 0
6:15 pm 18:15 Clear 29 -1.7 24 -4.5 81 81 NW 9 15 30.03 1017 10 16.0934 0 0
6:35 pm 18:35 Clear 29 -1.8 23 -4.8 80 80 NW 10 17 30.03 1017 10 16.0934 0 0
6:55 pm 18:55 Clear 28 -2 23 -5 80 80 NW 12 19 30.06 1018 10 16.0934 0 0
7:15 pm 19:15 Clear 28 -2.1 23 -5 81 81 NW 10 17 30.06 1018 10 16.0934 0 0
7:35 pm 19:35 Clear 28 -2.3 23 -5.2 81 81 NW 12 19 30.06 1018 10 16.0934 0 0
7:55 pm 19:55 Clear 27 -2.8 22 -5.4 83 83 NW 9 15 30.09 1019 10 16.0934 0 0
8:15 pm 20:15 Clear 27 -3 22 -5.5 83 83 NW 9 15 30.09 1019 10 16.0934 0 0
8:35 pm 20:35 Clear 27 -3 22 -5.7 82 82 NW 9 15 30.09 1019 10 16.0934 0 0
8:55 pm 20:55 Clear 26 -3.1 22 -5.7 82 82 NW 12 19 30.09 1019 10 16.0934 0 0
9:15 pm 21:15 Clear 26 -3.2 21 -6 81 81 NW 10 17 30.09 1019 10 16.0934 0 0
9:35 pm 21:35 Clear 26 -3.3 21 -6 82 82 NW 9 15 30.09 1019 10 16.0934 0 0
9:55 pm 21:55 Clear 26 -3.5 21 -6.1 82 82 NW 10 17 30.15 1021 10 16.0934 0 0
10:15 pm 22:15 Clear 25 -3.7 21 -6.1 84 84 NW 9 15 30.15 1021 10 16.0934 0 0
10:35 pm 22:35 Clear 26 -3.6 21 -6.1 83 83 NW 9 15 30.15 1021 10 16.0934 0 0
10:55 pm 22:55 Clear 24 -4.4 20 -6.7 84 84 NW 9 15 30.15 1021 10 16.0934 0 0
11:15 pm 23:15 Clear 24 -4.5 19 -7 83 83 NW 9 15 30.18 1022 10 16.0934 0 0
11:35 pm 23:35 Clear 23 -4.8 19 -7.2 84 84 NW 8 13 30.18 1022 10 16.0934 0 0
11:55 pm 23:55 Clear 23 -4.9 19 -7.2 84 84 NW 9 15 30.18 1022 10 16.0934 0 0

Powered by AerisWeather